This demonstration page uses our WeatherBlox Daily Observations layout. Learn more.

Left ArrowRight Arrow

30.00354, -91.81873

Hourly Observations for September 19, 2022

Temp ( °F °C ) Dew Point ( °F °C ) Humidity (%) Winds ( mph kmh ) Pressure ( in mb ) Visibility ( mi km ) Precip ( " mm )
12:53 am 00:53 Clear 75 23.9 72 22.2 90 90 Calm 30.01 1016 10 16 0.00 0.00
1:53 am 01:53 Clear 74 23.3 72 22.2 94 94 Calm 30.00 1016 10 16 0.00 0.00
2:49 am 02:49 Clear with Mist and Fog 73 23 72 22 94 94 Calm 29.99 1016 2 3 0.00 0.00
2:53 am 02:53 Clear with Mist and Fog 73 22.8 71 21.7 94 94 Calm 29.99 1016 2 2 0.00 0.00
2:59 am 02:59 Clear with Mist and Fog 73 22.8 71 21.7 94 94 Calm 29.99 1016 3 5 0.00 0.00
3:03 am 03:03 Clear with Mist and Fog 73 22.8 72 22.2 96 96 Calm 29.99 1016 2 2 0.00 0.00
3:16 am 03:16 Clear with Mist and Fog 73 22.8 72 22.2 96 96 Calm 29.99 1016 3 5 0.00 0.00
3:53 am 03:53 Clear 74 23.3 71 21.7 91 91 Calm 29.99 1016 10 16 0.00 0.00
4:53 am 04:53 Clear 74 23.3 72 22.2 94 94 Calm 29.99 1016 10 16 0.00 0.00
5:53 am 05:53 Clear 73 22.8 71 21.7 94 94 Calm 30.00 1016 7 11 0.00 0.00
6:53 am 06:53 Clear with Mist and Fog 71 21.7 69 20.6 93 93 Calm 30.01 1016 5 8 0.00 0.00
7:53 am 07:53 Sunny 77 25 74 23.3 90 90 NE 5 7 30.04 1017 10 16 0.00 0.00
8:53 am 08:53 Sunny 80 26.7 75 23.9 85 85 Calm 30.05 1018 10 16 0.00 0.00
9:53 am 09:53 Sunny 85 29.4 75 23.9 72 72 ENE 3 6 30.06 1018 10 16 0.00 0.00
10:53 am 10:53 Sunny 88 31.1 74 23.3 63 63 ENE 5 7 30.07 1018 10 16 0.00 0.00
11:53 am 11:53 Mostly Sunny 90 32.2 72 22.2 56 56 NNE 7 11 30.05 1018 10 16 0.00 0.00
12:53 pm 12:53 Mostly Sunny 90 32.2 71 21.7 54 54 Calm 30.04 1017 10 16 0.00 0.00
1:53 pm 13:53 Mostly Sunny 93 33.9 69 20.6 46 46 Calm 30.01 1016 10 16 0.00 0.00
2:53 pm 14:53 Mostly Sunny 93 33.9 69 20.6 46 46 ENE 6 9 29.98 1015 10 16 0.00 0.00
3:53 pm 15:53 Mostly Cloudy 94 34.4 69 20.6 45 45 NE 7 11 29.97 1015 10 16 0.00 0.00
4:53 pm 16:53 Partly Cloudy 91 32.8 70 21.1 50 50 WSW 5 7 29.96 1015 10 16 0.00 0.00
5:53 pm 17:53 Cloudy 88 31.1 71 21.7 57 57 SSE 5 7 29.97 1015 10 16 0.00 0.00
6:53 pm 18:53 Cloudy 85 29.4 73 22.8 68 68 Calm 29.98 1015 10 16 0.00 0.00
7:53 pm 19:53 Mostly Clear 79 26.1 74 23.3 85 85 SSW 3 6 29.98 1015 10 16 0.00 0.00
8:53 pm 20:53 Clear 79 26.1 74 23.3 85 85 Calm 30.00 1016 10 16 0.01 0.13
9:53 pm 21:53 Clear 78 25.6 73 22.8 85 85 NNW 3 6 30.01 1016 10 16 0.00 0.00
10:53 pm 22:53 Clear 77 25 73 22.8 88 88 Calm 30.01 1016 10 16 0.00 0.00
11:53 pm 23:53 Clear 76 24.4 72 22.2 88 88 Calm 30.00 1016 10 16 0.00 0.00

Powered by AerisWeather